This is the latest recevied weather packets stored in our database for station/object N8BAP. If no packets are shown the sender has not sent any weather packets the latest 10 day(s).
| Time | Temp. | Humidity | Pressure | Rain* | Wind** | Luminosity | Snow |
|---|---|---|---|---|---|---|---|
| 1788027619 | 27.78° C | 58% | 1027 hPa | 0 mm | - | 155 W/m² | - |
| 1788027314 | 28.33° C | 54% | 1027.2 hPa | 0 mm | - | 139 W/m² | - |
| 1788027014 | 28.89° C | 56% | 1027.1 hPa | 0 mm | - | 725 W/m² | - |
| 1788026708 | 28.89° C | 54% | 1027.2 hPa | 0 mm | - | 527 W/m² | - |
| 1788026405 | 28.33° C | 55% | 1027.1 hPa | 0 mm | - | 698 W/m² | - |
| 1788026114 | 27.78° C | 54% | 1027.1 hPa | 0 mm | - | 703 W/m² | - |
| 1788025797 | 28.89° C | 53% | 1027.3 hPa | 0 mm | - | 676 W/m² | - |
| 1788025491 | 29.44° C | 49% | 1027.3 hPa | 0 mm | - | 666 W/m² | - |
| 1788025186 | 28.89° C | 56% | 1027.4 hPa | 0 mm | - | 668 W/m² | - |
| 1788024881 | 27.78° C | 54% | 1027.5 hPa | 0 mm | - | 735 W/m² | - |
| 1788024577 | 27.78° C | 57% | 1027.7 hPa | 0 mm | - | 680 W/m² | - |
| 1788024277 | 28.89° C | 50% | 1027.7 hPa | 0 mm | - | 147 W/m² | - |
| 1788023972 | 28.89° C | 50% | 1027.8 hPa | 0 mm | - | 177 W/m² | - |
| 1788023667 | 28.33° C | 53% | 1028 hPa | 0 mm | - | 616 W/m² | - |
| 1788023358 | 28.33° C | 56% | 1027.9 hPa | 0 mm | - | 650 W/m² | - |
| 1788023058 | 27.78° C | 56% | 1028.1 hPa | 0 mm | - | 668 W/m² | - |
| 1788022755 | 27.78° C | 57% | 1027.9 hPa | 0 mm | - | 672 W/m² | - |
| 1788022454 | 27.78° C | 53% | 1027.9 hPa | 0 mm | - | 670 W/m² | - |
| 1788022149 | 27.78° C | 59% | 1028.1 hPa | 0 mm | - | 691 W/m² | - |
| 1788021843 | 27.78° C | 56% | 1027.9 hPa | 0 mm | - | 682 W/m² | - |
| 1788021542 | 27.22° C | 61% | 1027.8 hPa | 0 mm | - | 678 W/m² | - |
| 1788021241 | 27.22° C | 60% | 1027.9 hPa | 0 mm | - | 662 W/m² | - |
| 1788020936 | 27.22° C | 62% | 1028 hPa | 0 mm | - | 663 W/m² | - |
| 1788020635 | 27.22° C | 67% | 1028 hPa | 0 mm | - | 631 W/m² | - |
| 1788020332 | 26.67° C | 66% | 1028 hPa | 0 mm | - | 636 W/m² | - |
* Rain latest hour (hover to see other rain measurements)
** Current wind speed in m/s (hover to see current wind gust speed)